This demonstration page uses our WeatherBlox Daily Observations layout. Learn more.

Left ArrowRight Arrow

39.92423, -83.80882

Hourly Observations for March 28, 2017

Temp ( °F °C ) Dew Point ( °F °C ) Humidity (%) Winds ( mph kmh ) Pressure ( in mb ) Visibility ( mi km ) Precip ( " mm )
12:56 am 00:56 Cloudy with Rain 56 13.3 55 12.8 97 97 SSE 5 7 29.84 1011 5 8.0467 0.04 1.016
1:56 am 01:56 Cloudy with Light Rain 55 12.8 54 12.2 96 96 Calm 29.83 1010 6 9.65604 0.01 0.254
2:56 am 02:56 Cloudy with Rain 55 12.8 55 12.8 100 100 W 6 9 29.84 1011 2.5 4.02335 0.01 0.254
3:03 am 03:03 Cloudy with Light Rain 55 13 55 13 100 100 W 5 7 29.83 1010 5 8.0467 0.01 0.254
3:46 am 03:46 Cloudy with Mist and Fog 55 13 55 13 100 100 Calm 29.83 1010 2 3.21868 0.01 0.254
3:56 am 03:56 Cloudy with Mist and Fog 54 12.2 54 12.2 100 100 Calm 29.83 1010 1.5 2.41401 0.01 0.254
4:06 am 04:06 Cloudy with Mist and Fog 54 12 54 12 100 100 Calm 29.83 1010 1.25 2.011675 0 0
4:21 am 04:21 Cloudy with Light Rain 54 12 54 12 100 100 SE 3 6 29.83 1010 1.5 2.41401 0 0.0254
4:39 am 04:39 Cloudy with Light Rain 54 12 54 12 100 100 ESE 3 6 29.83 1010 1.25 2.011675 0 0.0254
4:53 am 04:53 Cloudy with Light Rain 54 12 54 12 100 100 Calm 29.83 1010 1 1.60934 0 0.0254
4:56 am 04:56 Cloudy with Light Rain 54 12.2 54 12.2 100 100 Calm 29.83 1010 0.75 1.207005 0 0.0254
5:04 am 05:04 Cloudy with Light Rain 54 12 54 12 100 100 SE 3 6 29.83 1010 1.25 2.011675 0 0.0254
5:17 am 05:17 Cloudy with Light Rain 55 13 54 12 94 94 Calm 29.83 1010 2.5 4.02335 0 0.0254
5:27 am 05:27 Cloudy with Mist and Fog 54 12 54 12 100 100 E 3 6 29.83 1010 1.75 2.816345 0 0.0254
5:33 am 05:33 Cloudy with Mist and Fog 54 12 54 12 100 100 Calm 29.83 1010 1 1.60934 0 0.0254
5:51 am 05:51 Cloudy with Mist and Fog 54 12 54 12 100 100 Calm 29.83 1010 0.75 1.207005 0.01 0.254
5:56 am 05:56 Cloudy with Mist and Fog 54 12.2 54 12.2 100 100 Calm 29.84 1010 0.75 1.207005 0.01 0.254
6:22 am 06:22 Cloudy with Mist and Fog 54 12 54 12 100 100 Calm 29.85 1011 0.75 1.207005 0 0
6:28 am 06:28 Cloudy with Mist and Fog 54 12 54 12 100 100 Calm 29.85 1011 1.25 2.011675 0 0
6:39 am 06:39 Cloudy with Mist and Fog 54 12 54 12 100 100 Calm 29.85 1011 2.5 4.02335 0 0
6:56 am 06:56 Cloudy with Light Rain 55 12.8 54 12.2 96 96 N 3 6 29.86 1011 4 6.43736 0 0.0254
7:34 am 07:34 Cloudy with Light Rain 54 12 54 12 100 100 NNE 6 9 29.88 1012 2 3.21868 0.01 0.254
7:44 am 07:44 Cloudy with Light Rain 54 12 54 12 100 100 NNE 8 13 29.88 1012 1.5 2.41401 0.02 0.508
7:53 am 07:53 Cloudy with Light Rain 54 12 54 12 100 100 NNE 10 17 29.88 1012 3 4.82802 0.02 0.508
7:56 am 07:56 Cloudy with Light Rain 54 12.2 53 11.7 97 97 NNE 10 17 29.89 1012 4 6.43736 0.02 0.508
8:56 am 08:56 Cloudy with Light Rain 54 12.2 52 11.1 93 93 N 13 20 29.93 1014 6 9.65604 0 0.0254
9:05 am 09:05 Cloudy with Light Rain 54 12 52 11 94 94 N 13 20 29.91 1013 6 9.65604 0 0.0254
9:56 am 09:56 Cloudy with Mist and Fog 53 11.7 52 11.1 96 96 N 10 17 29.94 1014 5 8.0467 0 0.0254
10:56 am 10:56 Cloudy 54 12.2 52 11.1 93 93 NNE 10 17 29.96 1015 8 12.87472 0 0.0254
11:56 am 11:56 Cloudy 54 12.2 51 10.6 90 90 N 10 17 30 1016 10 16.0934 0 0
12:56 pm 12:56 Cloudy 53 11.7 50 10 89 89 N 13 20 30.01 1016 9 14.48406 0 0
1:56 pm 13:56 Cloudy 54 12.2 49 9.4 83 83 NNE 14 22 30.01 1016 10 16.0934 0 0
2:56 pm 14:56 Cloudy 54 12.2 49 9.4 83 83 N 10 17 30.02 1017 10 16.0934 0 0
3:56 pm 15:56 Cloudy 55 12.8 49 9.4 80 80 N 10 17 30.04 1017 10 16.0934 0 0
4:56 pm 16:56 Cloudy 55 12.8 48 8.9 77 77 N 12 19 30.04 1017 10 16.0934 0 0
5:05 pm 17:05 Cloudy 55 13 48 9 77 77 N 12 19 30.03 1017 10 16.0934 0 0
5:56 pm 17:56 Cloudy 54 12.2 47 8.3 77 77 NNE 12 19 30.05 1018 10 16.0934 0 0
6:56 pm 18:56 Cloudy 52 11.1 47 8.3 83 83 N 7 11 30.08 1019 10 16.0934 0 0
7:56 pm 19:56 Cloudy 51 10.6 46 7.8 83 83 N 7 11 30.1 1019 10 16.0934 0 0
8:56 pm 20:56 Cloudy 50 10 45 7.2 83 83 NE 10 17 30.13 1020 10 16.0934 0 0
9:56 pm 21:56 Cloudy 49 9.4 44 6.7 83 83 NE 10 17 30.15 1021 10 16.0934 0 0
10:46 pm 22:46 Cloudy 48 9 45 7 87 87 NE 9 15 30.18 1022 10 16.0934 0 0
10:56 pm 22:56 Cloudy 47 8.3 44 6.7 90 90 NE 8 13 30.17 1022 10 16.0934 0 0
11:11 pm 23:11 Cloudy 46 8 45 7 93 93 NE 10 17 30.18 1022 10 16.0934 0 0
11:49 pm 23:49 Cloudy 46 8 43 6 87 87 NE 7 11 30.18 1022 10 16.0934 0 0
11:56 pm 23:56 Cloudy 47 8.3 43 6.1 86 86 NE 9 15 30.17 1022 10 16.0934 0 0

Powered by AerisWeather